Flag for Germany Weather past 2 weeks in Offenbach, Hesse, Germany

Now
75 °F

Passing clouds.


Feels Like: 77 °F
Forecast: 64 / 82 °F
Wind: 3 mph from Northeast

Location: Frankfurt-M-Flughafen Airport

Current Time: Jul 5, 2015 at 7:04:43 AM

Latest Report: Jul 5, 2015 at 6:20 AM


Visibility: N/A

Pressure: 30.04 "Hg

Humidity: 69%

Dew point: 64 °F

Location of OffenbachLocation

Historic Weather in Offenbach — Graph

°F

Offenbach temperature yesterday

Maximum temperature yesterday: 100 °F (at 4:50 PM)
Minimum temperature yesterday: 75 °F (at 2:20 AM)
Average temperature yesterday: 86 °F

Past Weeks' High & Low Weather Summary

 TemperatureHumidityPressure
High100 °F (Jul 4, 4:50 PM)100% (Jun 21, 11:50 PM)30.21 "Hg (Jun 21, 11:50 PM)
Low48 °F (Jun 23, 4:50 AM)20% (Jun 30, 4:50 PM)29.68 "Hg (Jun 22, 10:50 PM)
Average69 °F64%30.08 "Hg
* Reported Jun 20 6:20 AM — Jul 5 6:20 AM, Offenbach, Weather by CustomWeather, © 2015

Note: Actual official high and low records may vary slightly from our data, if they occured in-between our weather recording intervals... More about our weather records

Advertising

Offenbach weather history for previous 24 hours

 ConditionsComfort  
Time TempWeatherWind HumidityBarometerVisibility
6:20 AM
Sun, Jul 5
75 °FPassing clouds.3 mph69%30.04 "HgN/A
5:50 AM72 °FPassing clouds.3 mph78%30.04 "HgN/A
5:20 AM72 °FClear.8 mph78%30.04 "Hg10 mi
4:50 AM73 °FScattered showers. Passing clouds.3 mph74%30.07 "HgN/A
4:20 AM73 °FClear.1 mph74%30.07 "Hg10 mi
3:50 AM77 °FClear.2 mph61%30.07 "Hg10 mi
3:20 AM77 °FClear.2 mph61%30.07 "Hg10 mi
2:50 AM75 °FPassing clouds.3 mph65%30.07 "HgN/A
2:20 AM75 °FClear.5 mph69%30.07 "Hg10 mi
1:50 AM75 °FClear.3 mph69%30.07 "Hg10 mi
1:20 AM75 °FClear.1 mph69%30.07 "Hg10 mi
12:50 AM75 °FClear.1 mph69%30.07 "Hg10 mi
12:20 AM75 °FClear.6 mph65%30.07 "Hg10 mi
11:50 PM
Sat, Jul 4
77 °FClear.1 mph61%30.07 "Hg10 mi
11:20 PM79 °FPassing clouds.3 mph58%30.07 "HgN/A
10:50 PM81 °FClear.3 mph54%30.07 "Hg10 mi
10:20 PM81 °FSunny.2 mph54%30.07 "Hg10 mi
9:50 PM84 °FPassing clouds.2 mph45%30.07 "HgN/A
9:20 PM90 °FPartly sunny.6 mph36%30.07 "HgN/A
8:50 PM91 °FPartly sunny.8 mph32%30.07 "HgN/A
8:20 PM91 °FPartly sunny.10 mph34%30.07 "HgN/A
7:50 PM91 °FPartly sunny.14 mph34%30.07 "HgN/A
7:20 PM93 °FPartly sunny.8 mph34%30.07 "HgN/A
6:50 PM95 °FScattered clouds.6 mph30%30.04 "HgN/A
6:20 PM99 °FScattered clouds.9 mph25%30.04 "HgN/A
5:50 PM100 °FScattered clouds.5 mph22%30.04 "HgN/A
5:20 PM100 °FSunny.7 mph24%30.07 "Hg10 mi
4:50 PM100 °FSunny.3 mph22%30.07 "Hg10 mi
4:20 PM99 °FSunny.6 mph24%30.07 "Hg10 mi
3:50 PM99 °FSunny.7 mph24%30.07 "Hg10 mi
3:20 PM99 °FPassing clouds.8 mph25%30.07 "HgN/A
2:50 PM97 °FPassing clouds.9 mph30%30.07 "HgN/A
2:20 PM97 °FSunny.7 mph32%30.07 "Hg10 mi
1:50 PM97 °FPassing clouds.8 mph32%30.09 "HgN/A
1:20 PM95 °FPassing clouds.9 mph30%30.09 "HgN/A
12:50 PM93 °FPassing clouds.10 mph34%30.09 "HgN/A
12:20 PM93 °FPassing clouds.12 mph34%30.09 "HgN/A
11:50 AM90 °FPassing clouds.7 mph46%30.09 "HgN/A
11:20 AM88 °FPassing clouds.8 mph46%30.09 "HgN/A
10:50 AM88 °FPassing clouds.6 mph46%30.09 "HgN/A
10:20 AM86 °FPassing clouds.6 mph52%30.12 "HgN/A
9:50 AM86 °FPassing clouds.5 mph52%30.12 "HgN/A
9:20 AM84 °FSunny.1 mph55%30.12 "Hg10 mi
8:50 AM84 °FPassing clouds.3 mph55%30.12 "HgN/A
8:20 AM81 °FPassing clouds.3 mph62%30.12 "HgN/A
7:50 AM81 °FSunny.7 mph62%30.12 "Hg10 mi
7:20 AM77 °FSunny.7 mph69%30.12 "Hg10 mi
Weather by CustomWeather, © 2015

See weather overviewHow to use our weather pages